timestamp,surface_pressure_avg,surface_temp_avg,battery_voltage,lat,long
2019-07-10 00:00:00+00:00,223.1381,14.39,13.21,47.84626,-54.09684
2019-07-10 00:10:00+00:00,222.3331,14.37,13.05,47.84626,-54.09684
2019-07-10 00:20:00+00:00,223.7897,14.33,13.05,47.84626,-54.09684
2019-07-10 00:30:00+00:00,226.3148,14.3,13.05,47.84626,-54.09684
2019-07-10 00:40:00+00:00,225.9665,14.3,13.05,47.84626,-54.09684
2019-07-10 00:50:00+00:00,224.7115,14.3,13.05,47.84626,-54.09684
2019-07-10 01:00:00+00:00,227.6531,14.3,12.97,47.84626,-54.09684
2019-07-10 01:10:00+00:00,230.1948,14.3,12.89,47.84626,-54.09684
2019-07-10 01:20:00+00:00,229.2531,14.3,12.97,47.84626,-54.09684
2019-07-10 01:30:00+00:00,229.3881,14.3,12.97,47.84626,-54.09684
2019-07-10 01:40:00+00:00,232.0148,14.3,12.97,47.84626,-54.09684
2019-07-10 01:50:00+00:00,238.4481,14.32,12.97,47.84626,-54.09684
2019-07-10 02:00:00+00:00,242.2114,14.33,12.89,47.84626,-54.09684
2019-07-10 02:10:00+00:00,245.5948,14.32,12.81,47.84626,-54.09684
2019-07-10 02:20:00+00:00,252.2381,14.33,12.89,47.84626,-54.09684
2019-07-10 02:30:00+00:00,260.1697,14.33,12.89,47.84626,-54.09684
2019-07-10 02:40:00+00:00,264.5547,14.33,12.97,47.84626,-54.09684
2019-07-10 02:50:00+00:00,270.6064,14.35,12.97,47.84626,-54.09684
2019-07-10 03:00:00+00:00,279.983,14.36,12.89,47.84626,-54.09684
2019-07-10 03:10:00+00:00,287.4313,14.34,12.81,47.84626,-54.09684
2019-07-10 03:20:00+00:00,291.783,14.35,12.89,47.84626,-54.09684
2019-07-10 03:30:00+00:00,298.4896,14.36,12.89,47.84626,-54.09684
2019-07-10 03:40:00+00:00,307.5881,14.38,12.89,47.84626,-54.09684
2019-07-10 03:50:00+00:00,315.0646,14.39,12.97,47.84626,-54.09684
2019-07-10 04:00:00+00:00,318.6979,14.39,12.89,47.84626,-54.09684
2019-07-10 04:10:00+00:00,322.7347,14.4,12.81,47.84626,-54.09684
2019-07-10 04:20:00+00:00,328.6979,14.4,12.89,47.84626,-54.09684
2019-07-10 04:30:00+00:00,331.5912,14.4,12.89,47.84626,-54.09684
2019-07-10 04:40:00+00:00,330.9746,14.4,12.89,47.84626,-54.09684
2019-07-10 04:50:00+00:00,332.1396,14.4,12.89,47.84626,-54.09684
2019-07-10 05:00:00+00:00,335.5997,14.44,12.81,47.84626,-54.09684
2019-07-10 05:10:00+00:00,336.8279,14.4,12.81,47.84626,-54.09684
2019-07-10 05:20:00+00:00,337.6929,14.42,12.89,47.84626,-54.09684
2019-07-10 05:30:00+00:00,340.6863,14.4,12.89,47.84626,-54.09684
2019-07-10 05:40:00+00:00,342.2197,14.4,12.89,47.84626,-54.09684
2019-07-10 05:50:00+00:00,340.1213,14.4,12.89,47.84626,-54.09684
2019-07-10 06:00:00+00:00,339.6964,14.3,12.81,47.84626,-54.09684
2019-07-10 06:10:00+00:00,343.8679,14.3,12.73,47.84626,-54.09684
2019-07-10 06:20:00+00:00,342.5828,14.38,12.81,47.84626,-54.09684
2019-07-10 06:30:00+00:00,338.7713,14.4,12.81,47.84626,-54.09684
2019-07-10 06:40:00+00:00,338.4297,14.36,12.89,47.84626,-54.09684
2019-07-10 06:50:00+00:00,338.338,14.36,12.89,47.84626,-54.09684
2019-07-10 07:00:00+00:00,335.7697,14.54,12.81,47.84626,-54.09684
2019-07-10 07:10:00+00:00,332.0629,14.7,12.73,47.84626,-54.09684
2019-07-10 07:20:00+00:00,333.5663,14.5,12.81,47.84626,-54.09684
2019-07-10 07:30:00+00:00,331.443,14.3,12.81,47.84626,-54.09684
2019-07-10 07:40:00+00:00,324.0479,14.46,12.81,47.84626,-54.09684
2019-07-10 07:50:00+00:00,318.3964,14.6,12.81,47.84626,-54.09684
2019-07-10 08:00:00+00:00,314.5813,14.61,12.73,47.84626,-54.09684
2019-07-10 08:10:00+00:00,306.8146,14.84,12.73,47.84626,-54.09684
2019-07-10 08:20:00+00:00,296.3563,14.9,12.81,47.84626,-54.09684
2019-07-10 08:30:00+00:00,288.963,14.7,12.81,47.84626,-54.09684
2019-07-10 08:40:00+00:00,279.2697,14.64,12.81,47.84626,-54.09684
2019-07-10 08:50:00+00:00,268.9147,14.8,12.89,47.84626,-54.09684
2019-07-10 09:00:00+00:00,262.2314,14.83,12.81,47.84626,-54.09684
2019-07-10 09:10:00+00:00,254.1914,14.86,12.73,47.84626,-54.09684
2019-07-10 09:20:00+00:00,244.8181,14.87,12.89,47.84626,-54.09684
2019-07-10 09:30:00+00:00,238.8947,14.86,12.89,47.84626,-54.09684
2019-07-10 09:40:00+00:00,233.6198,14.87,12.97,47.84626,-54.09684
2019-07-10 09:50:00+00:00,223.9731,14.88,13.05,47.84626,-54.09684
2019-07-10 10:00:00+00:00,216.4547,14.9,13.05,47.84626,-54.09684
2019-07-10 10:10:00+00:00,214.6431,14.89,12.89,47.84626,-54.09684
2019-07-10 10:20:00+00:00,210.4131,14.86,12.97,47.84626,-54.09684
2019-07-10 10:30:00+00:00,203.3931,14.86,12.97,47.84626,-54.09684
2019-07-10 10:40:00+00:00,202.3998,14.87,12.97,47.84626,-54.09684
2019-07-10 10:50:00+00:00,206.6748,14.8,13.05,47.84626,-54.09684
2019-07-10 11:00:00+00:00,206.1148,14.83,12.97,47.84626,-54.09684
2019-07-10 11:10:00+00:00,203.9831,14.9,12.81,47.84626,-54.09684
2019-07-10 11:20:00+00:00,205.4015,14.8,12.89,47.84626,-54.09684
2019-07-10 11:30:00+00:00,205.5665,14.8,12.97,47.84626,-54.09684
2019-07-10 11:40:00+00:00,204.6581,14.8,13.13,47.84626,-54.09684
2019-07-10 11:50:00+00:00,206.8781,14.8,13.29,47.84626,-54.09684
2019-07-10 12:00:00+00:00,210.7897,14.79,13.37,47.84626,-54.09684
2019-07-10 12:10:00+00:00,213.2431,14.8,13.44,47.84626,-54.09684
2019-07-10 12:20:00+00:00,214.5964,14.8,13.6,47.84626,-54.09684
2019-07-10 12:30:00+00:00,218.7048,14.79,13.68,47.84626,-54.09684
2019-07-10 12:40:00+00:00,224.1281,14.6,13.68,47.84626,-54.09684
2019-07-10 12:50:00+00:00,225.2081,14.6,13.68,47.84626,-54.09684
2019-07-10 13:00:00+00:00,226.2381,14.67,13.76,47.84626,-54.09684
2019-07-10 13:10:00+00:00,229.3898,14.68,13.84,47.84626,-54.09684
2019-07-10 13:20:00+00:00,230.6447,14.66,14.0,47.84626,-54.09684
2019-07-10 13:30:00+00:00,228.9631,14.62,14.0,47.84626,-54.09684
2019-07-10 13:40:00+00:00,230.4848,14.7,14.08,47.84626,-54.09684
2019-07-10 13:50:00+00:00,232.4948,14.7,14.32,47.84626,-54.09684
2019-07-10 14:00:00+00:00,232.4915,14.73,14.24,47.84626,-54.09684
2019-07-10 14:10:00+00:00,234.8331,14.7,14.16,47.84626,-54.09684
2019-07-10 14:20:00+00:00,241.718,14.5,14.4,47.84626,-54.09684
2019-07-10 14:30:00+00:00,248.1181,14.4,14.48,47.84626,-54.09684
2019-07-10 14:40:00+00:00,250.3748,14.4,14.48,47.84626,-54.09684
2019-07-10 14:50:00+00:00,254.2447,14.46,14.48,47.84626,-54.09684
2019-07-10 15:00:00+00:00,261.1515,14.4,14.48,47.84626,-54.09684
2019-07-10 15:10:00+00:00,267.9164,14.3,14.32,47.84626,-54.09684
2019-07-10 15:20:00+00:00,272.8264,14.3,14.48,47.84626,-54.09684
2019-07-10 15:30:00+00:00,278.5697,14.3,14.48,47.84626,-54.09684
2019-07-10 15:40:00+00:00,286.0314,13.39,14.32,47.84626,-54.09684
2019-07-10 15:50:00+00:00,295.8164,12.9,14.16,47.84626,-54.09684
2019-07-10 16:00:00+00:00,302.8597,12.8,14.08,47.84626,-54.09684
2019-07-10 16:10:00+00:00,308.5514,12.7,14.0,47.84626,-54.09684
2019-07-10 16:20:00+00:00,313.723,12.7,14.16,47.84626,-54.09684
2019-07-10 16:30:00+00:00,319.0864,12.67,14.32,47.84626,-54.09684
2019-07-10 16:40:00+00:00,323.3214,12.6,14.32,47.84626,-54.09684
2019-07-10 16:50:00+00:00,325.1913,12.5,14.32,47.84626,-54.09684
2019-07-10 17:00:00+00:00,329.6896,12.45,14.16,47.84626,-54.09684
2019-07-10 17:10:00+00:00,334.9963,12.4,14.08,47.84626,-54.09684
2019-07-10 17:20:00+00:00,338.428,12.39,14.08,47.84626,-54.09684
2019-07-10 17:30:00+00:00,337.2347,12.42,14.08,47.84626,-54.09684
2019-07-10 17:40:00+00:00,339.3114,12.4,14.16,47.84626,-54.09684
2019-07-10 17:50:00+00:00,343.3996,12.4,14.24,47.84626,-54.09684
2019-07-10 18:00:00+00:00,342.5113,12.43,14.16,47.84626,-54.09684
2019-07-10 18:10:00+00:00,341.528,12.49,14.0,47.84626,-54.09684
2019-07-10 18:20:00+00:00,345.5397,12.48,14.08,47.84626,-54.09684
2019-07-10 18:30:00+00:00,348.3762,12.5,14.0,47.84626,-54.09684
2019-07-10 18:40:00+00:00,345.448,12.75,14.0,47.84626,-54.09684
2019-07-10 18:50:00+00:00,344.108,12.7,14.0,47.84626,-54.09684
2019-07-10 19:00:00+00:00,347.8147,12.5,13.92,47.84626,-54.09684
2019-07-10 19:10:00+00:00,348.0179,12.72,13.76,47.84626,-54.09684
2019-07-10 19:20:00+00:00,344.1696,12.98,13.76,47.84626,-54.09684
2019-07-10 19:30:00+00:00,341.1463,13.1,13.76,47.84626,-54.09684
2019-07-10 19:40:00+00:00,338.6846,13.1,13.84,47.84626,-54.09684
2019-07-10 19:50:00+00:00,334.9663,13.1,13.84,47.84626,-54.09684
2019-07-10 20:00:00+00:00,329.4013,13.47,13.76,47.84626,-54.09684
2019-07-10 20:10:00+00:00,323.8013,13.69,13.68,47.84626,-54.09684
2019-07-10 20:20:00+00:00,318.0146,13.75,13.76,47.84626,-54.09684
2019-07-10 20:30:00+00:00,308.453,13.8,13.84,47.84626,-54.09684
2019-07-10 20:40:00+00:00,301.148,13.97,13.84,47.84626,-54.09684
2019-07-10 20:50:00+00:00,296.3547,14.09,13.84,47.84626,-54.09684
2019-07-10 21:00:00+00:00,288.4681,14.49,13.76,47.84626,-54.09684
2019-07-10 21:10:00+00:00,278.0148,14.8,13.6,47.84626,-54.09684
2019-07-10 21:20:00+00:00,269.7331,15.0,13.68,47.84626,-54.09684
2019-07-10 21:30:00+00:00,264.6947,15.08,13.6,47.84626,-54.09684
2019-07-10 21:40:00+00:00,257.7231,15.13,13.68,47.84626,-54.09684
2019-07-10 21:50:00+00:00,248.9114,15.2,13.6,47.84626,-54.09684
2019-07-10 22:00:00+00:00,242.4447,15.2,13.53,47.84626,-54.09684
2019-07-10 22:10:00+00:00,238.8164,15.2,13.37,47.84626,-54.09684
2019-07-10 22:20:00+00:00,233.8597,15.2,13.37,47.84626,-54.09684
2019-07-10 22:30:00+00:00,229.0964,15.19,13.29,47.84626,-54.09684
2019-07-10 22:40:00+00:00,227.4464,15.1,13.29,47.84626,-54.09684
2019-07-10 22:50:00+00:00,223.8397,15.1,13.29,47.84626,-54.09684
2019-07-10 23:00:00+00:00,218.6615,15.2,13.21,47.84626,-54.09684
2019-07-10 23:10:00+00:00,217.9098,15.2,13.05,47.84626,-54.09684
2019-07-10 23:20:00+00:00,218.9981,15.2,13.05,47.84626,-54.09684
2019-07-10 23:30:00+00:00,215.3665,15.2,13.05,47.84626,-54.09684
2019-07-10 23:40:00+00:00,212.3314,15.25,13.05,47.84626,-54.09684
2019-07-10 23:50:00+00:00,214.2281,15.28,13.05,47.84626,-54.09684
